Massena, NY

12:58 PM EST on December 07, 2019 (GMT -0500)
Massena International-Richards

Weather History for KMSS - October, 2019

Change the Weather History Date:

Saturday, October 5, 2019

  Actual Average Record
Temperature  
Mean Temperature 42 °F 50 °F  
Max Temperature 56 °F 61 °F 85 °F (1991)
Min Temperature 28 °F 40 °F 22 °F (1984)
Degree Days  
Heating Degree Days 23 15  
Month to date heating degree days 81 70  
Since 1 July heating degree days 296 370  
Cooling Degree Days 0 0  
Month to date cooling degree days 0 0  
Year to date cooling degree days 398 361  
Moisture  
Dew Point 31 °F    
Average Humidity 71    
Maximum Humidity 96    
Minimum Humidity 45    
Precipitation  
Precipitation 0.00 in 0.11 in 1.35 in (1962)
Month to date precipitation 0.96 0.54  
Year to date precipitation 24.67 26.73  
Sea Level Pressure  
Sea Level Pressure 30.44 in    
Wind  
Wind Speed 3 mph (South)    
Max Wind Speed 9 mph    
Max Gust Speed 14 mph    
Visibility 8 miles    
Events      
T = Trace of Precipitation, MM = Missing Value Source: NWS Daily Summary

Daily Weather History Graph

Daily Weather History Graph

Search for Another Location

Airport or City:

Astronomy

Oct. 05, 2019 Rise Set
Actual Time 7:02 AM EDT 6:32 PM EDT
Civil Twilight 6:32 AM EDT 7:02 PM EDT
Nautical Twilight 5:58 AM EDT 7:36 PM EDT
Astronomical Twilight 5:24 AM EDT 8:10 PM EDT
Moon 2:40 PM EDT (10/5) 11:39 PM EDT (10/5)
Length of Visible Light 12h 29m
Length of Day
11h 30m
Waxing Crescent, 50% of the Moon is Illuminated
Oct 5
Waxing Crescent
Oct 5
First Quarter
Oct 13
Full
Oct 21
Last Quarter
Oct 27
New

Hourly Weather History & Observations

Time (EDT) Temp. Windchill Dew Point Humidity Pressure Visibility Wind Dir Wind Speed Gust Speed Precip Events Conditions
12:53 AM 34.0 °F - 30.9 °F 89% 30.46 in 10.0 mi Calm Calm - N/A   Clear
1:53 AM 32.0 °F - 28.9 °F 88% 30.48 in 10.0 mi Calm Calm - N/A   Clear
2:15 AM 32.0 °F - 30.0 °F 92% 30.46 in 2.5 mi Calm Calm - N/A   Partly Cloudy
2:30 AM 30.9 °F - 28.9 °F 92% 30.46 in 9.0 mi Calm Calm - N/A   Partly Cloudy
2:44 AM 30.9 °F - 28.9 °F 92% 30.46 in 2.0 mi Calm Calm - N/A   Mostly Cloudy
2:47 AM 30.2 °F - 28.4 °F 93% 30.46 in 1.2 mi Calm Calm - N/A   Scattered Clouds
2:53 AM 30.0 °F - 28.0 °F 92% 30.48 in 1.2 mi Calm Calm - N/A   Scattered Clouds
2:55 AM 30.0 °F - 28.0 °F 92% 30.46 in 2.0 mi Calm Calm - N/A   Scattered Clouds
3:18 AM 30.9 °F 26.2 °F 28.9 °F 92% 30.46 in 1.2 mi SSW 4.6 mph - N/A   Scattered Clouds
3:21 AM 28.9 °F 23.9 °F 28.0 °F 96% 30.46 in 0.8 mi SSW 4.6 mph - N/A   Mist
3:29 AM 30.0 °F - 28.0 °F 92% 30.46 in 1.2 mi Calm Calm - N/A   Partly Cloudy
3:31 AM 30.0 °F - 28.0 °F 92% 30.47 in 2.0 mi Calm Calm - N/A   Partly Cloudy
3:38 AM 30.9 °F - 28.9 °F 92% 30.46 in 10.0 mi Calm Calm - N/A   Partly Cloudy
3:53 AM 30.0 °F - 28.0 °F 92% 30.48 in 10.0 mi Calm Calm - N/A   Clear
4:53 AM 30.9 °F - 28.0 °F 89% 30.50 in 10.0 mi Calm Calm - N/A   Clear
5:53 AM 28.9 °F 25.2 °F 27.0 °F 92% 30.51 in 10.0 mi South 3.5 mph - N/A   Clear
5:59 AM 28.9 °F - 27.0 °F 92% 30.49 in 2.5 mi Calm Calm - N/A   Partly Cloudy
6:13 AM 28.0 °F 22.8 °F 26.1 °F 92% 30.49 in 10.0 mi SSW 4.6 mph - N/A   Partly Cloudy
6:53 AM 30.0 °F 26.5 °F 28.0 °F 92% 30.52 in 10.0 mi SW 3.5 mph - N/A   Clear
7:53 AM 30.9 °F 26.2 °F 28.9 °F 92% 30.52 in 10.0 mi SSW 4.6 mph - N/A   Clear
8:53 AM 37.0 °F 33.3 °F 33.1 °F 86% 30.53 in 10.0 mi SSW 4.6 mph - N/A   Clear
9:53 AM 42.1 °F 38.4 °F 36.0 °F 79% 30.53 in 10.0 mi South 5.8 mph - N/A   Clear
10:53 AM 46.9 °F - 37.0 °F 68% 30.52 in 10.0 mi Calm Calm - N/A   Clear
11:53 AM 51.1 °F - 37.0 °F 59% 30.51 in 10.0 mi WNW 3.5 mph - N/A   Clear
12:53 PM 53.1 °F - 36.0 °F 52% 30.48 in 10.0 mi Calm Calm - N/A   Clear
1:53 PM 54.0 °F - 34.0 °F 47% 30.45 in 10.0 mi Calm Calm - N/A   Clear
2:53 PM 55.0 °F - 36.0 °F 49% 30.43 in 10.0 mi Calm Calm - N/A   Clear
3:53 PM 55.9 °F - 35.1 °F 45% 30.38 in 10.0 mi NNW 5.8 mph - N/A   Clear
4:53 PM 55.0 °F - 35.1 °F 47% 30.37 in 10.0 mi NE 4.6 mph - N/A   Clear
5:53 PM 51.1 °F - 36.0 °F 56% 30.35 in 10.0 mi NNE 6.9 mph - N/A   Clear
6:53 PM 43.0 °F - 37.9 °F 82% 30.34 in 10.0 mi Calm Calm - N/A   Clear
7:53 PM 41.0 °F 39.0 °F 37.0 °F 86% 30.32 in 10.0 mi NE 3.5 mph - N/A   Clear
8:53 PM 42.1 °F 39.2 °F 35.1 °F 76% 30.30 in 10.0 mi ESE 4.6 mph - N/A   Clear
9:53 PM 37.0 °F 32.4 °F 33.1 °F 86% 30.29 in 10.0 mi East 5.8 mph - N/A   Clear
10:53 PM 37.9 °F 34.4 °F 33.1 °F 83% 30.28 in 10.0 mi NE 4.6 mph - N/A   Clear
11:53 PM 39.9 °F - 35.1 °F 83% 30.27 in 10.0 mi Calm Calm - N/A   Clear